Regional Weather Roundup
Issued by NWS Charleston, SC

Current Version | Previous Version | Text Only | Print | Product List | Glossary Off
Versions: 1 2 3 4 5 6 7 8 9 10 11 12 13 14 15 16 17 18 19 20 21 22 23 24 25 26 27 28 29 30 31 32 33 34 35 36 37 38 39 40 41 42 43 44 45 46 47 48 49 50

000
ASUS42 KCHS 081912
RWRCHS

REGIONAL WEATHER ROUNDUP
NATIONAL WEATHER SERVICE CHARLESTON SC
200 PM EST THU DEC 08 2016

NOTE: "FAIR" INDICATES FEW OR NO CLOUDS BELOW 12,000 FEET WITH NO
SIGNIFICANT WEATHER AND/OR OBSTRUCTIONS TO VISIBILITY.

NOT ALL STATIONS ARE QUALITY CONTROLLED. USE DATA WITH CAUTION...
ESPECIALLY DEWPOINT OBSERVATIONS.

SCZ027-030-031-034>040-042>050-082000-
...SOUTHEAST SOUTH CAROLINA...

CITY           SKY/WX    TMP DP  RH WIND       PRES   REMARKS
N CHARLESTON   MOSUNNY   67  47  48 W10       30.05F
WATERFRONT PRK   N/A     64  52  64 NW7       30.05F
MOUNT PLEASANT NOT AVBL
JOHNS ISLAND   FAIR      68  50  52 W9        30.06F
PINOPOLIS        N/A     59  52  77 N10       29.99S
MONCKS CORNER  FAIR      61  46  59 N6        30.07F
SUMMERVILLE    FAIR      64  48  55 NW10      30.08F
BEAUFORT MCAS  SUNNY     64  44  48 W13       30.08F
BEAUFORT ARPT  FAIR      63  45  51 W14       30.08F
HILTON HEAD IS NOT AVBL
WALTERBORO     CLEAR     64  45  48 NW9       30.09F
ALLENDALE      FAIR      61  45  55 VRB7G15   30.10F

...SOUTHERN MIDLANDS AND PEE DEE...

CITY           SKY/WX    TMP DP  RH WIND       PRES   REMARKS
GEORGETOWN     FAIR      63  50  63 NW8       30.06F
KINGSTREE      FAIR      61  45  55 NW7       30.07S
ORANGEBURG     SUNNY     59  45  59 N8        30.10S
BARNWELL       NOT AVBL
AIKEN          FAIR      57  41  54 NW10G16   30.16R
MANNING        FAIR      61  45  55 N9        30.08S
COLUMBIA       PTSUNNY   60  42  51 NW8       30.11F
SUMTER         PTSUNNY   57  45  63 NW9       30.08S
FLORENCE       CLOUDY    57  48  72 N7        30.08F
MYRTLE BEACH   NOT AVBL
N MYRTLE BEACH MOSUNNY   59  49  69 NW10      30.05F

$$

GAZ063-065-086>088-099>101-113>116-118-119-134>141-150-082000-
...SOUTHEAST GEORGIA...

CITY           SKY/WX    TMP DP  RH WIND       PRES   REMARKS
SAVANNAH ARPT  PTSUNNY   64  41  42 NW15      30.10F
HUNTER AAF     SUNNY     65  49  55 W10       30.07F
FORT STEWART   SUNNY     64  40  41 NW8       30.09F
STATESBORO     MOSUNNY   62  44  51 NW9       30.12S
SYLVANIA       CLEAR    N/A N/A N/A NW13      30.13S
CLAXTON        FAIR      62  42  47 W12       30.13S

...CSRA...CENTRAL AND FAR SOUTHEAST GEORGIA...

CITY           SKY/WX    TMP DP  RH WIND       PRES   REMARKS
THOMSON        SUNNY     59  40  49 NW5       30.20S
AUGUSTA-BUSH   SUNNY     62  43  49 N14       30.13S
AUGUSTA-DANIEL MOSUNNY   59  42  53 NW7G16    30.14S
SWAINSBORO     FAIR      61  37  41 N8G18     30.15S
VIDALIA        MOSUNNY   63  43  48 NW10G18   30.15S
EASTMAN        FAIR      62  19  18 NW9G17    30.20S
HAZLEHURST     FAIR      64  38  37 N12G18    30.14F
ALMA           NOT AVBL
WAYCROSS       MOSUNNY   67  49  52 NW9       30.13F
JESUP          FAIR      64  46  52 NW13      30.12F
BAXLEY         FAIR      63  43  48 NW10      30.14S
BRUNSWICK      SUNNY     64  52  63 NW12      30.11F
SAINT SIMONS   MOSUNNY   63  48  58 W10       30.10F

$$

SCZ027-028-034-036>038-045-046-048>050-GAZ119-141-082000-
...LAKE AND SUPPLEMENTAL COASTAL OBSERVATIONS...

STATION/POSITION TIME  TEMP    WIND        PRES    WAVE   SWELL
                       AIR SEA DIR/SP/G            HT/PER HT/PER/DIR
                 (UTC) (F)     (DEG/KT/KT) (MB)    (FT/S) (FT/S/D)
WINYAH BAY       1745   58     310/  6     1018.0
LAKE MURRAY      1820   56     300/  3/ 10 1019.3
ACE BASIN NERRS  1745   63     300/  3     1019.0
FORT PULASKI     1836   61 62  310/ 14/ 16 1019.2F
SAPELO ISLAND    1800   62     290/  6     1020.0

$$

ANZ835-935-AMZ111-154-330-350-352-354-370-450-454-472-082000-
...C-MAN AND BUOY OBSERVATIONS...

STATION/POSITION TIME  TEMP    WIND        PRES    WAVE   SWELL
                       AIR SEA DIR/SP/G            HT/PER HT/PER/DIR
                 (UTC) (F)     (DEG/KT/KT) (MB)    (FT/S) (FT/S/D)
BUOY 41004       1850   60 74  300/ 10/ 14 1017.4F   3/ 4   2/ 70/ 9
BUOY 41008       1750   57 64  270/ 12/ 14 1019.7    2/ 4   2/ 40/12
FOLLY BEACH CMAN 1800   62     300/  5/  6 1018.7F
CAPERS NEARSHORE 1808   59 61  300/  4/  6 1017.7F
FRIPP NEARSHORE  1808   60 62  270/ 10/ 14 1018.2F


STATION/POSITION TIME  TEMP    WIND        PRES    WAVE   SWELL
                       AIR SEA DIR/SP/G            HT/PER HT/PER/DIR
                 (UTC) (F)     (DEG/KT/KT) (MB)    (FT/S) (FT/S/D)
5E ST. MARYS GA  1830      66                N/A     2/11
FRYING PAN BUOY  1850   61 74  310/ 17/ 23 1016.8F   3/ 4   2/ 60/10
BUOY 41025       1850   61 78  290/ 14/ 19 1014.7F   5/ 9   3/ 70/ 9
CAPE LOOKOUT NC  1800   56     280/ 16/ 18 1015.9F
BUOY 41002       1850   73 74  260/ 14/ 16 1016.0F   5/10   3/ 20/10
BUOY 41010       NOT AVBL
ST AUGUSTINE FL  1900   62 67   10/ 10/ 11 1020.3F


$$




USA.gov is the U.S. government's official web portal to all federal, state and local government web resources and services.